Left ArrowRight Arrow

32.19382, -80.73816

Hourly Observations for January 1, 2020

Temp ( °F °C ) Dew Point ( °F °C ) Humidity (%) Winds ( mph kmh ) Pressure ( in mb ) Visibility ( mi km ) Precip ( " mm )
12:15 am 00:15 Clear 50 10 36 2 58 58 WSW 6 9 30.02 1017 10 16 N/A
12:35 am 00:35 Clear 50 10 36 2 58 58 VRB 7 11 30.02 1017 10 16 N/A
12:55 am 00:55 Clear 50 10 34 1 54 54 WSW 10 17 30.02 1017 10 16 N/A
1:15 am 01:15 Clear 50 10 34 1 54 54 W 12 19 30.02 1017 10 16 N/A
1:35 am 01:35 Clear 50 10 34 1 54 54 WSW 10 17 30.02 1017 10 16 N/A
1:55 am 01:55 Clear 50 10 34 1 54 54 W 7 11 30.02 1017 10 16 N/A
2:15 am 02:15 Clear 48 9 34 1 58 58 W 7 11 30.02 1017 10 16 N/A
2:35 am 02:35 Clear 48 9 34 1 58 58 W 8 13 30.03 1017 10 16 N/A
2:55 am 02:55 Clear 48 9 34 1 58 58 W 8 13 30.03 1017 10 16 N/A
3:15 am 03:15 Clear 48 9 34 1 58 58 VRB 7 11 30.03 1017 10 16 N/A
3:35 am 03:35 Clear 46 8 32 0 57 57 W 8 13 30.02 1017 10 16 N/A
3:55 am 03:55 Clear 46 8 32 0 57 57 W 8 13 30.02 1017 10 16 N/A
4:15 am 04:15 Clear 46 8 32 0 57 57 VRB 7 11 30.02 1017 10 16 N/A
4:35 am 04:35 Clear 46 8 32 0 57 57 VRB 6 9 30.02 1017 10 16 N/A
4:55 am 04:55 Clear 46 8 32 0 57 57 W 8 13 30.03 1017 10 16 N/A
5:15 am 05:15 Clear 46 8 32 0 57 57 VRB 7 11 30.03 1017 10 16 N/A
5:35 am 05:35 Clear 45 7 32 0 61 61 VRB 7 11 30.04 1017 10 16 N/A
6:50 am 06:50 Clear 45 7 32 0 61 61 WSW 6 9 30.04 1017 10 16 N/A
7:50 am 07:50 Sunny 45 7 32 0 61 61 WSW 6 9 30.06 1018 10 16 N/A
8:50 am 08:50 Sunny 48 9 32 0 54 54 WSW 6 9 30.08 1019 10 16 N/A
9:50 am 09:50 Sunny 50 10 32 0 50 50 WSW 12 19 30.10 1019 10 16 N/A
10:50 am 10:50 Sunny 55 13 30 -1 38 38 WNW 7 11 30.09 1019 10 16 N/A
11:50 am 11:50 Partly Cloudy 57 14 30 -1 36 36 NW 8 13 30.07 1018 10 16 N/A
12:50 pm 12:50 Partly Cloudy 57 14 27 -3 31 31 W 12 19 30.03 1017 10 16 N/A
1:50 pm 13:50 Sunny 61 16 27 -3 27 27 W 8 13 30.00 1016 10 16 N/A
2:50 pm 14:50 Sunny 61 16 27 -3 27 27 W 9 15 30.00 1016 10 16 N/A
3:50 pm 15:50 Sunny 63 17 28 -2 27 27 WNW 6 9 30.00 1016 10 16 N/A
4:50 pm 16:50 Sunny 63 17 28 -2 27 27 W 6 9 30.01 1016 10 16 N/A
5:50 pm 17:50 Clear 54 12 36 2 51 51 W 3 6 30.04 1017 10 16 N/A
6:50 pm 18:50 Clear 48 9 37 3 66 66 W 3 6 30.05 1018 10 16 N/A
7:50 pm 19:50 Clear 46 8 37 3 71 71 Calm 30.06 1018 10 16 N/A
8:50 pm 20:50 Clear 46 8 39 4 76 76 Calm 30.07 1018 10 16 N/A
8:55 pm 20:55 Clear 46 8 37 3 71 71 W 3 6 30.08 1019 10 16 N/A
9:15 pm 21:15 Clear 45 7 37 3 76 76 WSW 3 6 30.10 1019 10 16 N/A
9:35 pm 21:35 Clear 45 7 37 3 76 76 Calm 30.08 1019 10 16 N/A
9:55 pm 21:55 Clear 45 7 39 4 81 81 WSW 5 7 30.09 1019 10 16 N/A
10:15 pm 22:15 Clear 45 7 39 4 81 81 Calm 30.08 1019 10 16 N/A
10:35 pm 22:35 Clear 45 7 39 4 81 81 Calm 30.09 1019 10 16 N/A
10:55 pm 22:55 Clear 45 7 39 4 81 81 Calm 30.08 1019 10 16 N/A
11:15 pm 23:15 Clear 45 7 39 4 81 81 Calm 30.08 1019 10 16 N/A
11:35 pm 23:35 Clear 45 7 39 4 81 81 S 3 6 30.07 1018 10 16 N/A
11:55 pm 23:55 Clear 46 8 41 5 82 82 Calm 30.09 1019 10 16 N/A

Powered by Vaisala Xweather